This is the latest recevied weather packets stored in our database for station/object KU9TRY. If no packets are shown the sender has not sent any weather packets the latest 10 day(s).
| Time | Temp. | Humidity | Pressure | Rain* | Wind** | Luminosity | Snow |
|---|---|---|---|---|---|---|---|
| 1788041376 | 30.56° C | 51% | 1017.8 hPa | 0 mm | - | 52 W/m² | - |
| 1788041076 | 30.56° C | 50% | 1017.8 hPa | 0 mm | - | 65 W/m² | - |
| 1788040774 | 30.56° C | 51% | 1018 hPa | 0 mm | - | 65 W/m² | - |
| 1788040468 | 30.56° C | 47% | 1017.9 hPa | 0 mm | - | 62 W/m² | - |
| 1788040165 | 30.56° C | 50% | 1017.8 hPa | 0 mm | - | 69 W/m² | - |
| 1788039864 | 30.56° C | 51% | 1017.9 hPa | 0 mm | - | 65 W/m² | - |
| 1788039559 | 30.56° C | 51% | 1017.9 hPa | 0 mm | - | 62 W/m² | - |
| 1788039254 | 30.56° C | 50% | 1018 hPa | 0 mm | - | 67 W/m² | - |
| 1788038949 | 30.56° C | 50% | 1018.1 hPa | 0 mm | - | 71 W/m² | - |
| 1788038645 | 30.56° C | 53% | 1018.1 hPa | 0 mm | - | 61 W/m² | - |
| 1788038344 | 31.11° C | 51% | 1018 hPa | 0 mm | - | 56 W/m² | - |
| 1788038039 | 31.11° C | 50% | 1018.2 hPa | 0 mm | - | 59 W/m² | - |
| 1788037739 | 31.67° C | 49% | 1018.1 hPa | 0 mm | - | 58 W/m² | - |
| 1788037434 | 31.67° C | 44% | 1018.1 hPa | 0 mm | - | 65 W/m² | - |
| 1788037133 | 31.67° C | 41% | 1018.1 hPa | 0 mm | - | 58 W/m² | - |
| 1788036828 | 31.67° C | 53% | 1018.2 hPa | 0 mm | - | 56 W/m² | - |
| 1788036525 | 31.11° C | 54% | 1018.3 hPa | 0 mm | - | 66 W/m² | - |
| 1788036225 | 30.56° C | 56% | 1018.2 hPa | 0 mm | - | 68 W/m² | - |
| 1788035921 | 30° C | 55% | 1018.5 hPa | 0 mm | - | 68 W/m² | - |
| 1788035620 | 30° C | 56% | 1018.4 hPa | 0 mm | - | 57 W/m² | - |
| 1788035315 | 30° C | 57% | 1018.5 hPa | 0 mm | - | 60 W/m² | - |
| 1788035011 | 30.56° C | 55% | 1018.5 hPa | 0 mm | - | 56 W/m² | - |
| 1788034707 | 30.56° C | 56% | 1018.7 hPa | 0 mm | - | 74 W/m² | - |
| 1788034403 | 31.11° C | 55% | 1018.7 hPa | 0 mm | - | 79 W/m² | - |
| 1788034099 | 31.67° C | 53% | 1018.7 hPa | 0 mm | - | 82 W/m² | - |
* Rain latest hour (hover to see other rain measurements)
** Current wind speed in m/s (hover to see current wind gust speed)